Quincy, IL

7:42 PM CDT on October 17, 2017 (GMT -0500)
Quincy Regional-Baldwin

Weather History for KUIN - June, 2014

Change the Weather History Date:

Monday, June 2, 2014

  Actual Average Record
Temperature  
Mean Temperature 79 °F 68 °F  
Max Temperature 85 °F 78 °F 102 °F (1934)
Min Temperature 72 °F 58 °F 43 °F (1956)
Degree Days  
Heating Degree Days 0 2  
Month to date heating degree days 0 4  
Since 1 June heating degree days 0 4  
Since 1 July heating degree days 6251 5570  
Cooling Degree Days 14 5  
Month to date cooling degree days 28 9  
Year to date cooling degree days 171 95  
Since 1 June cooling degree days 28 9  
Growing Degree Days 28 (Base 50)    
Moisture  
Dew Point 64 °F    
Average Humidity 64    
Maximum Humidity 79    
Minimum Humidity 48    
Precipitation  
Precipitation 0.00 in 0.15 in 2.49 in (1994)
Month to date precipitation 0.08 0.30  
Year to date precipitation 8.49 14.39  
Sea Level Pressure  
Sea Level Pressure 29.87 in    
Wind  
Wind Speed 13 mph (SW)    
Max Wind Speed 28 mph    
Max Gust Speed 39 mph    
Visibility 10 miles    
Events      
T = Trace of Precipitation, MM = Missing Value Source: NWS Daily Summary

Daily Weather History Graph

Daily Weather History Graph

Search for Another Location

Airport or City:

Trip Planner

Search our weather history database for the weather conditions in past years. The results will help you decide how hot, cold, wet, or windy it might be!

Date:

Astronomy

Jun. 02, 2014 Rise Set
Actual Time 5:37 AM CDT 8:28 PM CDT
Civil Twilight 5:05 AM CDT 9:00 PM CDT
Nautical Twilight 4:25 AM CDT 9:40 PM CDT
Astronomical Twilight 3:38 AM CDT 10:27 PM CDT
Moon 10:05 AM CDT (6/2) 11:57 PM CDT (6/2)
Length of Visible Light 15h 54m
Length of Day
14h 50m
Waxing Crescent, 22% of the Moon is Illuminated
Jun 2
Waxing Crescent
Jun 5
First Quarter
Jun 12
Full
Jun 19
Last Quarter
Jun 27
New

Hourly Weather History & Observations

Time (CDT) Temp. Heat Index Dew Point Humidity Pressure Visibility Wind Dir Wind Speed Gust Speed Precip Events Conditions
12:54 AM 75.9 °F - 66.0 °F 71% 29.86 in 10.0 mi South 12.7 mph 20.7 mph N/A   Mostly Cloudy
1:54 AM 75.0 °F - 66.0 °F 73% 29.84 in 10.0 mi South 18.4 mph 24.2 mph N/A   Partly Cloudy
2:54 AM 75.0 °F - 66.0 °F 73% 29.83 in 10.0 mi South 15.0 mph - N/A   Mostly Cloudy
3:54 AM 73.9 °F - 66.0 °F 76% 29.81 in 10.0 mi South 13.8 mph 24.2 mph N/A   Mostly Cloudy
4:54 AM 73.9 °F - 64.9 °F 73% 29.76 in 10.0 mi SSE 18.4 mph 28.8 mph N/A   Clear
5:45 AM 73.9 °F - 64.9 °F 73% 29.81 in 10.0 mi South 20.7 mph 29.9 mph N/A   Mostly Cloudy
5:54 AM 73.9 °F - 64.9 °F 73% 29.79 in 10.0 mi SSW 21.9 mph 29.9 mph N/A   Overcast
6:47 AM 73.9 °F - 64.9 °F 73% 29.84 in 10.0 mi SW 20.7 mph 31.1 mph N/A   Scattered Clouds
6:54 AM 73.9 °F - 64.9 °F 73% 29.83 in 10.0 mi SW 16.1 mph 31.1 mph N/A   Partly Cloudy
7:54 AM 73.0 °F - 64.0 °F 73% 29.86 in 10.0 mi WSW 12.7 mph - N/A   Clear
8:54 AM 72.0 °F - 64.0 °F 76% 29.89 in 10.0 mi WSW 16.1 mph - N/A   Clear
9:54 AM 73.0 °F - 64.0 °F 73% 29.91 in 10.0 mi West 12.7 mph - N/A   Partly Cloudy
10:54 AM 73.9 °F - 64.0 °F 71% 29.93 in 10.0 mi West 12.7 mph - N/A   Partly Cloudy
11:54 AM 77.0 °F - 64.4 °F 65% 29.95 in 10.0 mi WSW 11.5 mph - N/A   Clear
12:54 PM 80.1 °F 81.5 °F 63.0 °F 56% 29.92 in 10.0 mi SW 13.8 mph 20.7 mph N/A   Clear
1:54 PM 82.0 °F 83.0 °F 62.1 °F 51% 29.91 in 10.0 mi WSW 13.8 mph - N/A   Clear
2:54 PM 82.0 °F 83.0 °F 62.1 °F 51% 29.89 in 10.0 mi Variable 6.9 mph 16.1 mph N/A   Clear
3:54 PM 84.0 °F 84.9 °F 63.0 °F 49% 29.88 in 10.0 mi WSW 10.4 mph - N/A   Clear
4:54 PM 84.0 °F 84.5 °F 62.1 °F 47% 29.88 in 10.0 mi WSW 15.0 mph 23.0 mph N/A   Partly Cloudy
5:54 PM 82.9 °F 83.7 °F 62.1 °F 49% 29.87 in 10.0 mi West 15.0 mph - N/A   Clear
6:54 PM 81.0 °F 81.9 °F 62.1 °F 52% 29.87 in 10.0 mi WSW 9.2 mph - N/A   Partly Cloudy
7:54 PM 79.0 °F - 63.0 °F 58% 29.88 in 10.0 mi WSW 8.1 mph - N/A   Partly Cloudy
8:54 PM 75.9 °F - 63.0 °F 64% 29.90 in 10.0 mi WSW 8.1 mph - N/A   Clear
9:54 PM 73.0 °F - 63.0 °F 71% 29.91 in 10.0 mi SW 6.9 mph - N/A   Clear
10:54 PM 73.0 °F - 64.0 °F 73% 29.93 in 10.0 mi WSW 8.1 mph - N/A   Partly Cloudy
11:54 PM 73.9 °F - 64.9 °F 73% 29.94 in 10.0 mi WSW 9.2 mph - N/A   Partly Cloudy